User: anonymous
Location: Caltech
(34.1382°N, 118.1253°W)
Time: 16:25:20
(UTC-07:00)
Language:

Cosmos 2084 - Orbit

View from above orbital plane
View from above orbital plane
View from above satellite
View from above satellite

Ground track
Ground track

The orbit data is extracted from the following two-line orbital elements,

1 20663U 90055A   14244.46828695  .00000613  00000-0  82383-4 0  2024
2 20663 062.7982 026.7267 0039574 312.8121 046.9646 14.89231915307782
Epoch (UTC): 01 September 2014 11:14:19
Eccentricity: 0.0039574
inclination: 62.7982°
perigee height: 573 km
apogee height: 628 km
right ascension of ascending node: 26.7267°
argument of perigee: 312.8121°
revolutions per day: 14.89231915
mean anomaly at epoch: 46.9646°
orbit number at epoch: 30778

The dashed part of the orbit path shows where the satellite is in the earth's shadow,  

DLR